Weather in Ogloblino

Russia / Kostroma Oblast     58°59′04″N   42°04′12″E
temp.,
°C
wind,
m/s
gust,
m/s
humid.,
%
clouds,
%
prec.,
mm/h
press.,
hPa
HPBL,
m
27 september, mon
mon2700:00+8n3895100 0.0 1017412
03:00+8n4995100 0.2 1018531
06:00+8nne499393 0.3 1020739
09:00+8nne4991100 0.3 1021760
12:00+8nne4993100 0.1 1023824
15:00+8nne4888100 0.1 1025949
18:00+7ne4988100 0.1 1027890
21:00+6ene4888100 0.1 1028850
28 september, tue
tue2800:00+4ne39945 0.0 1030318
03:00+2ne269812 0.0 1031162
06:00+1ne26977 0.0 1033135
09:00+5ne247699 0.0 1033337
12:00+9ne2357100 0.0 1033853
15:00+10nne345341 0.0 10331047
18:00+6n2276100 0.0 103427
21:00+4nne2283100 0.0 103418
29 september, wed
wed2900:00+3n2292100 0.0 103520
03:00+3n229624 0.0 103520
06:00+4nnw1393100 0.0 103596
09:00+6nnw138397 0.0 1035230
12:00+7wnw2380100 0.0 1035261
15:00+9wnw247896 0.0 1034416
18:00+6wnw119424 0.0 103410
21:00+7wnw1193100 0.0 103423
30 september, thu
thu3000:00+7wnw1195100 0.0 103415
03:00+5wnw11966 0.0 103410
06:00+5wnw11967 0.0 103410
09:00+9nw138797 0.0 1034181
12:00+12wnw237525 0.0 1034504
15:00+14nw2368100 0.0 1033989
18:00+11wnw2378100 0.0 103360
21:00+11nw238381 0.0 103382
1 october, fri
fri100:00+8nw22969 0.0 103338
03:00+7wnw23975 0.0 103451
06:00+6wnw23976 0.0 103453
09:00+10wnw23835 0.0 1034270
12:00+14wnw236849 0.0 1033824
15:00+13w3467100 0.0 1032877
18:00+11wsw2581100 0.0 1032143
21:00+11wsw257398 0.0 1032122